Location: Banska Bystrica
(48.7333°N, 19.1500°E)
Time: 01:32:33
(UTC+01:00)

ISS - Pass Details

Date: 26 January 2021
Orbit: 417 x 422 km, 51.6° (Epoch: 06 March)

Event Time Altitude Azimuth Distance (km) Brightness Sun altitude
Rises 18:46:52 0° 278° (W) 2,374 1.5 -22.1°
Reaches altitude 10° 18:49:00 10° 284° (WNW) 1,510 0.1 -22.5°
Enters shadow 18:51:32 40° 318° (NW) 644 -2.6 -22.9°
